CW4629 Weather Reports


time (UTC)temp
C
wind
direction
speed
KPH
gust
KPH
rain 1hr
cm
rain 24hr
cm
rain mn
cm
humidity
%
barometer
mb
20260502122927 9 112 0.0 0.0 0.00 0.00 0.00 39 1020.7
20260502122826 9 112 0.0 0.0 0.00 0.00 0.00 39 1020.7
20260502121829 10 209 1.6 3.2 0.00 0.00 0.00 38 1020.6
20260502120827 10 67 0.0 1.6 0.00 0.00 0.00 38 1020.4
20260502115828 10 360 0.0 0.0 0.00 0.00 0.00 37 1020.3
20260502114826 10 90 0.0 0.0 0.00 0.00 0.00 36 1020.3
20260502114728 10 90 0.0 0.0 0.00 0.00 0.00 36 1020.3
20260502113729 10 45 1.6 3.2 0.00 0.00 0.00 39 1020.3
20260502112827 10 22 0.0 0.0 0.00 0.00 0.00 37 1020.4
20260502111827 11 22 0.0 0.0 0.00 0.00 0.00 35 1020.4
20260502110845 11 45 0.0 0.0 0.00 0.00 0.00 37 1020.3
20260502105827 11 67 0.0 0.0 0.00 0.00 0.00 37 1020.2
20260502104827 10 292 3.2 4.8 0.00 0.00 0.00 38 1020.3
20260502103926 10 315 0.0 0.0 0.00 0.00 0.00 40 1020.3
20260502102929 10 22 0.0 0.0 0.00 0.00 0.00 39 1020.2
20260502101929 11 22 0.0 0.0 0.00 0.00 0.00 36 1020.2
20260502091126 13 341 1.6 3.2 0.00 0.00 0.00 30 1020.0
20260502090226 13 337 1.6 3.2 0.00 0.00 0.00 28 1020.0
20260502090128 13 337 1.6 3.2 0.00 0.00 0.00 27 1020.0
20260502070626 14 22 0.0 1.6 0.00 0.00 0.00 27 1019.7
20260502065627 15 90 0.0 0.0 0.00 0.00 0.00 26 1019.7
20260502064644 16 90 0.0 0.0 0.00 0.00 0.00 23 1019.5
20260502063627 16 90 1.6 3.2 0.00 0.00 0.00 21 1019.5
20260502061627 16 180 1.6 3.2 0.00 0.00 0.00 21 1019.3
20260502060726 17 135 0.0 1.6 0.00 0.00 0.00 21 1019.2
20260502055737 17 112 0.0 0.0 0.00 0.00 0.00 20 1018.9
20260502054820 17 90 0.0 0.0 0.00 0.00 0.00 21 1019.0
20260502053820 17 90 0.0 1.6 0.00 0.00 0.00 19 1018.8
20260502052820 18 90 0.0 0.0 0.00 0.00 0.00 18 1018.8
20260502051820 18 202 0.0 0.0 0.00 0.00 0.00 18 1018.6
20260502045834 19 90 0.0 1.6 0.00 0.00 0.00 14 1018.5
20260502044920 20 292 0.0 0.0 0.00 0.00 0.00 14 1018.2
20260502043918 20 337 0.0 1.6 0.00 0.00 0.00 14 1018.1
20260502041936 21 331 4.8 12.9 0.00 0.00 0.00 14 1017.8
20260502041020 20 358 4.8 11.3 0.00 0.00 0.00 13 1017.7
20260502040042 20 342 4.8 9.7 0.00 0.00 0.00 14 1017.5
20260502035119 21 315 0.0 4.8 0.00 0.00 0.00 15 1017.4
20260502034121 21 334 3.2 8.0 0.00 0.00 0.00 14 1017.2
20260502033137 21 335 4.8 8.0 0.00 0.00 0.00 14 1017.1
20260502031135 22 352 3.2 6.4 0.00 0.00 0.00 13 1016.7
20260502030234 22 313 6.4 12.9 0.00 0.00 0.00 13 1016.6
20260502025235 22 335 6.4 11.3 0.00 0.00 0.00 13 1016.3
20260502024219 22 21 3.2 6.4 0.00 0.00 0.00 12 1016.4
20260502023219 23 344 3.2 6.4 0.00 0.00 0.00 12 1016.1
20260502022219 23 6 6.4 9.7 0.00 0.00 0.00 12 1016.0
20260502021236 23 332 9.7 12.9 0.00 0.00 0.00 12 1015.7
20260502020335 24 349 4.8 12.9 0.00 0.00 0.00 11 1015.9
20260502015335 25 337 8.0 19.3 0.00 0.00 0.00 11 1015.7
20260502014336 25 356 12.9 19.3 0.00 0.00 0.00 10 1015.6
20260502013419 25 351 6.4 11.3 0.00 0.00 0.00 10 1015.6
20260502012419 25 18 14.5 24.1 0.00 0.00 0.00 10 1015.6
20260502011420 25 3 12.9 19.3 0.00 0.00 0.00 10 1015.6
20260502010437 25 338 6.4 12.9 0.00 0.00 0.00 10 1015.6
20260502005419 25 342 8.0 16.1 0.00 0.00 0.00 10 1015.6
20260502003435 25 2 6.4 11.3 0.00 0.00 0.00 8 1015.6
20260502002520 25 349 17.7 29.0 0.00 0.00 0.00 10 1015.6
20260502001518 26 301 8.0 12.9 0.00 0.00 0.00 10 1015.6
20260502000537 25 348 9.7 22.5 0.00 0.00 0.00 9 1015.6
20260501233636 25 336 12.9 30.6 0.00 0.00 0.00 9 1015.6
20260501232719 25 335 14.5 24.1 0.00 0.00 0.00 9 1015.4
20260501231734 25 303 19.3 29.0 0.00 0.00 0.00 10 1015.3
20260501230820 25 310 14.5 25.7 0.00 0.00 0.00 10 1015.5
20260501224919 26 1 16.1 29.0 0.00 0.00 0.00 11 1015.7
20260501222034 25 18 8.0 14.5 0.00 0.00 0.00 11 1015.9
20260501221035 26 322 19.3 30.6 0.00 0.00 0.00 11 1015.5
20260501220134 25 327 17.7 25.7 0.00 0.00 0.00 12 1015.9
20260501215218 25 311 24.1 33.8 0.00 0.00 0.00 13 1015.8
20260501214235 25 301 22.5 29.0 0.00 0.00 0.00 13 1016.0
20260501213317 25 317 20.9 33.8 0.00 0.00 0.00 13 1016.0
20260501212320 25 310 9.7 17.7 0.00 0.00 0.00 11 1016.4
20260501211418 25 324 16.1 25.7 0.00 0.00 0.00 12 1016.4
20260501210335 25 303 19.3 29.0 0.00 0.00 0.00 12 1016.4
20260501204318 25 317 16.1 25.7 0.00 0.00 0.00 12 1016.6
20260501203319 25 330 9.7 17.7 0.00 0.00 0.00 11 1016.6
20260501201320 25 301 6.4 9.7 0.00 0.00 0.00 11 1016.7
20260501200334 25 281 12.9 20.9 0.00 0.00 0.00 10 1016.8
20260501194418 24 318 4.8 9.7 0.00 0.00 0.00 12 1017.0
20260501193419 25 343 14.5 19.3 0.00 0.00 0.00 11 1017.0
20260501192433 25 327 4.8 12.9 0.00 0.00 0.00 12 1017.2
20260501191419 25 189 9.7 12.9 0.00 0.00 0.00 13 1017.3
20260501190436 24 77 8.0 12.9 0.00 0.00 0.00 13 1017.4
20260501185519 25 230 4.8 11.3 0.00 0.00 0.00 12 1017.8
20260501185420 25 226 6.4 14.5 0.00 0.00 0.00 13 1017.7
20260501183418 23 22 3.2 6.4 0.00 0.00 0.00 13 1018.0
20260501182434 24 293 4.8 17.7 0.00 0.00 0.00 13 1018.2
20260501181435 23 23 3.2 6.4 0.00 0.00 0.00 14 1018.4
20260501180419 23 67 3.2 6.4 0.00 0.00 0.00 13 1018.4
20260501175435 23 170 8.0 11.3 0.00 0.00 0.00 13 1018.5
20260501174519 23 110 6.4 11.3 0.00 0.00 0.00 15 1018.5
20260501173519 23 96 6.4 8.0 0.00 0.00 0.00 15 1018.4
20260501172520 23 187 9.7 16.1 0.00 0.00 0.00 15 1018.6
20260501171618 23 122 4.8 9.7 0.00 0.00 0.00 15 1018.8
20260501171537 23 148 3.2 6.4 0.00 0.00 0.00 15 1018.8
20260501170619 22 197 6.4 11.3 0.00 0.00 0.00 17 1018.9
20260501165635 21 147 3.2 6.4 0.00 0.00 0.00 17 1019.1
20260501164719 21 112 6.4 9.7 0.00 0.00 0.00 18 1019.0
20260501163720 22 157 1.6 4.8 0.00 0.00 0.00 17 1019.0
20260501162735 21 186 1.6 6.4 0.00 0.00 0.00 18 1018.9
20260501161734 21 202 1.6 4.8 0.00 0.00 0.00 19 1019.1
20260501160817 20 142 0.0 1.6 0.00 0.00 0.00 21 1019.1
20260501155820 20 157 3.2 4.8 0.00 0.00 0.00 20 1019.0
20260501154819 19 157 3.2 4.8 0.00 0.00 0.00 22 1018.9
20260501153835 18 157 0.0 4.8 0.00 0.00 0.00 24 1019.1
20260501152917 18 112 0.0 1.6 0.00 0.00 0.00 24 1019.0
20260501151935 17 1 0.0 0.0 0.00 0.00 0.00 24 1019.0
20260501151819 17 360 0.0 0.0 0.00 0.00 0.00 24 1019.0
20260501150819 17 360 0.0 0.0 0.00 0.00 0.00 26 1018.9
20260501145818 16 360 0.0 0.0 0.00 0.00 0.00 29 1019.1
20260501144819 16 337 0.0 0.0 0.00 0.00 0.00 28 1019.1
20260501143917 17 337 0.0 0.0 0.00 0.00 0.00 26 1019.0
20260501142920 17 337 0.0 0.0 0.00 0.00 0.00 26 1019.0
20260501141936 16 337 0.0 0.0 0.00 0.00 0.00 32 1018.9